Location: Buffign�court
(47.8126°N, 6.0176°E)
Time: 18:22:29
(UTC+00:00)

Cosmos 1908 - Pass Details

Date: 16 June 2021
Orbit: 509 x 530 km, 82.5° (Epoch: 22 July)

Event Time Altitude Azimuth Distance (km) Brightness Sun altitude
Rises 20:44:26 0° 354° (N) 2,676 7.9 -9.0°
Reaches altitude 10° 20:46:38 10° 359° (N) 1,778 6.8 -9.2°
Maximum altitude 20:50:28 54° 77° (ENE) 643 3.5 -9.6°
Enters shadow 20:53:42 14° 154° (SSE) 1,538 5.0 -10.0°
